Date String (YYYY-MM-DD hh:mm:ss) UTC,Instrument flags,absolute air pressure of the measurement (hPa),sample flow rate (lpm),inlet stack bypass flow (lpm),air temperature of the measurement (°C),ambient temperature measured by the external sensor (°C),aerosol sample conditioner tube jacket temperature (°C),OPC LED temperature (°C),internal box temperature (°C),relative humidity of the measurement (%),span deviation,mass concentration of particles derived from Lorenz-Mie calculation of OPC scattering (μg/m³),mass concentration of particles derived from Lorenz-Mie calculation of OPC scattering (μg/m³),mass concentration of particles derived from Lorenz-Mie calculation of OPC scattering (μg/m³)
DateTimeUTC,F1_M11,P_M11,Q1_M11,Q2_M11,T1_M11,T2_M11,T3_M11,T4_M11,T5_M11,U1_M11,ZSPAN_M11,X0_M11,X2_M11,X1_M11
2023-08-25 21:00:00,SystemResetWarning,0839.7,4.99,000.00,031.0,027.9,000.0,039.3,031.1,33.7,0000.0,0007.42,0003.97,0003.62
2023-08-25 21:01:00,SystemResetWarning,0839.7,5.01,000.00,030.9,027.9,000.0,039.2,031.2,33.7,0000.0,0007.46,0003.97,0003.59
2023-08-25 21:02:00,SystemResetWarning,0839.8,5.01,000.00,030.9,028.0,000.0,039.2,031.2,33.7,0000.0,0007.47,0003.95,0003.57
2023-08-25 21:03:00,SystemResetWarning,0839.8,5.00,000.00,030.9,028.0,000.0,039.2,031.2,33.8,0000.0,0007.45,0003.94,0003.54
2023-08-25 21:04:00,SystemResetWarning,0839.8,4.99,000.00,030.8,028.0,000.0,039.2,031.2,34.0,0000.0,0007.35,0003.88,0003.50
2023-08-25 21:05:00,SystemResetWarning,0839.8,4.98,000.00,030.8,027.7,000.0,039.2,031.2,33.9,0000.0,0007.19,0003.84,0003.46
2023-08-25 21:06:00,SystemResetWarning,0839.8,5.00,000.00,030.8,025.8,000.0,039.0,031.0,33.9,0000.0,0007.10,0003.81,0003.43
2023-08-25 21:07:00,SystemResetWarning,0839.8,5.00,000.00,030.7,024.8,000.0,038.8,030.7,34.0,0000.0,0006.95,0003.77,0003.40
2023-08-25 21:08:00,SystemResetWarning,0839.8,5.01,000.00,030.5,024.8,000.0,038.8,030.4,34.5,0000.0,0006.83,0003.73,0003.38
2023-08-25 21:09:00,SystemResetWarning,0839.7,5.00,000.00,030.3,025.1,000.0,038.8,030.4,35.0,0000.0,0006.69,0003.69,0003.37
2023-08-25 21:10:00,SystemResetWarning,0839.7,5.01,000.00,030.3,025.5,000.0,038.8,030.5,35.2,0000.0,0006.58,0003.66,0003.36
2023-08-25 21:11:00,SystemResetWarning,0839.7,5.01,000.00,030.4,025.9,000.0,038.8,030.7,34.9,0000.0,0005.59,0003.61,0003.35
2023-08-25 21:12:00,SystemResetWarning,0839.7,4.97,000.00,030.6,026.3,000.0,038.7,030.8,34.4,0000.0,0004.97,0003.60,0003.34
2023-08-25 21:13:00,SystemResetWarning,0839.8,5.01,000.00,030.7,026.6,000.0,038.7,030.8,34.1,0000.0,0004.86,0003.58,0003.35
2023-08-25 21:14:00,SystemResetWarning,0839.8,5.00,000.00,030.7,026.8,000.0,038.7,030.8,34.0,0000.0,0004.99,0003.60,0003.35
2023-08-25 21:15:00,SystemResetWarning,0839.7,4.99,000.00,030.7,027.0,000.0,038.8,030.8,34.1,0000.0,0005.10,0003.62,0003.36
2023-08-25 21:16:00,SystemResetWarning,0839.8,4.99,000.00,030.7,027.2,000.0,038.8,030.9,34.2,0000.0,0005.27,0003.64,0003.37
2023-08-25 21:17:00,SystemResetWarning,0839.7,5.01,000.00,030.7,027.3,000.0,038.8,030.9,34.2,0000.0,0005.32,0003.64,0003.38
2023-08-25 21:18:00,SystemResetWarning,0839.7,5.01,000.00,030.7,027.4,000.0,038.9,030.9,34.2,0000.0,0005.42,0003.66,0003.40
2023-08-25 21:19:00,SystemResetWarning,0839.8,5.00,000.00,030.7,027.5,000.0,038.9,030.9,34.1,0000.0,0005.49,0003.68,0003.41
2023-08-25 21:20:00,SystemResetWarning,0839.8,4.99,000.00,030.7,027.6,000.0,038.9,030.9,34.1,0000.0,0005.72,0003.70,0003.42
2023-08-25 21:21:00,SystemResetWarning,0839.7,4.99,000.00,030.7,027.7,000.0,038.9,031.0,34.1,0000.0,0005.84,0003.73,0003.44
2023-08-25 21:22:00,SystemResetWarning,0839.8,5.00,000.00,030.6,027.7,000.0,038.9,031.0,34.1,0000.0,0005.96,0003.78,0003.47
2023-08-25 21:23:00,SystemResetWarning,0839.8,5.01,000.00,030.6,027.8,000.0,038.9,031.0,34.0,0000.0,0006.03,0003.82,0003.50
2023-08-25 21:24:00,SystemResetWarning,0839.8,5.01,000.00,030.6,027.8,000.0,038.9,031.0,34.0,0000.0,0006.11,0003.86,0003.52
2023-08-25 21:25:00,SystemResetWarning,0839.8,4.98,000.00,030.6,027.9,000.0,038.9,031.1,34.0,0000.0,0006.25,0003.91,0003.55
2023-08-25 21:26:00,SystemResetWarning,0839.9,5.00,000.00,030.6,027.9,000.0,038.9,031.1,34.1,0000.0,0006.38,0003.95,0003.58
2023-08-25 21:27:00,SystemResetWarning,0839.8,5.01,000.00,030.6,027.9,000.0,038.9,031.1,34.2,0000.0,0006.47,0004.00,0003.61
2023-08-25 21:28:00,SystemResetWarning,0839.8,4.98,000.00,030.5,026.5,000.0,038.8,030.9,34.1,0000.0,0006.50,0004.03,0003.63
2023-08-25 21:29:00,SystemResetWarning,0839.8,5.00,000.00,030.5,025.0,000.0,038.6,030.7,34.1,0000.0,0006.55,0004.06,0003.65
2023-08-25 21:30:00,SystemResetWarning,0839.8,5.01,000.00,030.3,024.7,000.0,038.5,030.5,34.2,0000.0,0006.66,0004.09,0003.67
2023-08-25 21:31:00,SystemResetWarning,0839.8,5.01,000.00,030.1,024.9,000.0,038.5,030.3,34.4,0000.0,0006.62,0004.10,0003.68
2023-08-25 21:32:00,SystemResetWarning,0839.8,5.00,000.00,030.0,025.3,000.0,038.5,030.3,34.6,0000.0,0006.70,0004.12,0003.69
2023-08-25 21:33:00,SystemResetWarning,0839.8,5.00,000.00,029.9,025.7,000.0,038.5,030.4,34.6,0000.0,0006.59,0004.09,0003.69
2023-08-25 21:34:00,SystemResetWarning,0839.9,5.00,000.00,029.9,026.1,000.0,038.5,030.4,34.6,0000.0,0006.54,0004.08,0003.70
2023-08-25 21:35:00,SystemResetWarning,0839.8,5.00,000.00,029.8,026.4,000.0,038.5,030.5,34.6,0000.0,0006.49,0004.06,0003.70
2023-08-25 21:36:00,SystemResetWarning,0839.9,5.00,000.00,029.8,026.6,000.0,038.4,030.5,34.7,0000.0,0006.23,0004.02,0003.70
2023-08-25 21:37:00,SystemResetWarning,0839.9,4.98,000.00,029.8,026.9,000.0,038.4,030.5,35.0,0000.0,0006.03,0003.98,0003.69
2023-08-25 21:38:00,SystemResetWarning,0839.8,5.03,000.00,029.8,027.0,000.0,038.4,030.6,35.0,0000.0,0005.91,0003.95,0003.67
2023-08-25 21:39:00,SystemResetWarning,0839.9,4.96,000.00,030.0,027.2,000.0,038.4,030.7,34.6,0000.0,0005.95,0003.95,0003.67
2023-08-25 21:40:00,SystemResetWarning,0839.9,5.01,000.00,030.1,027.3,000.0,038.4,030.8,34.6,0000.0,0005.83,0003.92,0003.66
2023-08-25 21:41:00,SystemResetWarning,0839.9,5.01,000.00,030.1,027.4,000.0,038.4,030.8,34.6,0000.0,0005.75,0003.91,0003.66
2023-08-25 21:42:00,SystemResetWarning,0839.9,4.99,000.00,030.1,027.5,000.0,038.4,030.8,34.6,0000.0,0005.66,0003.91,0003.66
2023-08-25 21:43:00,SystemResetWarning,0839.9,5.00,000.00,030.1,027.6,000.0,038.4,030.8,34.6,0000.0,0005.55,0003.89,0003.65
2023-08-25 21:44:00,SystemResetWarning,0839.8,5.00,000.00,030.1,027.6,000.0,038.4,030.8,34.5,0000.0,0005.60,0003.91,0003.64
2023-08-25 21:45:00,SystemResetWarning,0839.9,5.01,000.00,030.1,027.7,000.0,038.4,030.8,34.4,0000.0,0005.63,0003.91,0003.63
2023-08-25 21:46:00,SystemResetWarning,0839.9,5.02,000.00,030.1,027.7,000.0,038.5,030.8,34.5,0000.0,0005.80,0003.92,0003.63
2023-08-25 21:47:00,SystemResetWarning,0839.9,4.99,000.00,030.1,027.8,000.0,038.5,030.9,34.6,0000.0,0006.05,0003.94,0003.63
2023-08-25 21:48:00,SystemResetWarning,0839.9,4.99,000.00,030.1,027.8,000.0,038.5,030.9,34.6,0000.0,0006.03,0003.93,0003.62
2023-08-25 21:49:00,SystemResetWarning,0839.9,4.98,000.00,030.1,027.1,000.0,038.4,030.8,34.7,0000.0,0005.96,0003.93,0003.64
2023-08-25 21:50:00,SystemResetWarning,0839.9,5.01,000.00,030.1,025.3,000.0,038.2,030.5,34.7,0000.0,0006.16,0003.95,0003.67
2023-08-25 21:51:00,SystemResetWarning,0839.8,4.99,000.00,029.9,024.7,000.0,038.1,030.3,35.0,0000.0,0006.54,0004.00,0003.69
2023-08-25 21:52:00,SystemResetWarning,0839.7,5.03,000.00,029.9,024.7,000.0,038.2,030.1,35.4,0000.0,0006.76,0004.04,0003.69
2023-08-25 21:53:00,SystemResetWarning,0839.8,4.98,000.00,030.0,025.1,000.0,038.2,030.2,35.3,0000.0,0007.36,0004.05,0003.71
2023-08-25 21:54:00,SystemResetWarning,0839.9,5.01,000.00,030.3,025.5,000.0,038.2,030.5,34.8,0000.0,0007.47,0004.07,0003.73
2023-08-25 21:55:00,SystemResetWarning,0839.9,4.97,000.00,030.5,025.9,000.0,038.2,030.6,34.4,0000.0,0007.54,0004.10,0003.75
2023-08-25 21:56:00,SystemResetWarning,0839.9,5.01,000.00,030.6,026.2,000.0,038.3,030.6,34.3,0000.0,0007.60,0004.14,0003.78
2023-08-25 21:57:00,SystemResetWarning,0839.9,5.01,000.00,030.6,026.5,000.0,038.3,030.6,34.2,0000.0,0007.54,0004.15,0003.82
2023-08-25 21:58:00,SystemResetWarning,0839.9,5.00,000.00,030.7,026.8,000.0,038.4,030.7,34.1,0000.0,0007.42,0004.13,0003.83
2023-08-25 21:59:00,SystemResetWarning,0839.9,4.99,000.00,030.7,027.0,000.0,038.5,030.7,33.9,0000.0,0007.44,0004.17,0003.86
